Seretse Khama, Botswana

10:58 PM CAT on October 17, 2017 (GMT +0200)
Seretse Khama

Weather History for FBSK - September, 2012

Change the Weather History Date:

Thursday, September 6, 2012

  Actual Average Record
Temperature  
Mean Temperature 60 °F -  
Max Temperature 77 °F 82 °F 91 °F (2007)
Min Temperature 44 °F 54 °F 44 °F (1996)
Degree Days  
Heating Degree Days 4    
Growing Degree Days 10 (Base 50)    
Moisture  
Dew Point 18 °F    
Average Humidity 23    
Maximum Humidity 64    
Minimum Humidity 4    
Precipitation  
Precipitation 0.00 in - - ()
Sea Level Pressure  
Sea Level Pressure 30.04 in    
Wind  
Wind Speed 7 mph ()    
Max Wind Speed 21 mph    
Max Gust Speed 25 mph    
Visibility 6.2 miles    
Events      
Averages and records for this station are not official NWS values.
T = Trace of Precipitation, MM = Missing Value Source: Averaged Metar Reports

Daily Weather History Graph

Daily Weather History Graph

Search for Another Location

Airport or City:

Trip Planner

Search our weather history database for the weather conditions in past years. The results will help you decide how hot, cold, wet, or windy it might be!

Date:

Astronomy

Sep. 06, 2012 Rise Set
Actual Time 6:22 AM CAT 6:06 PM CAT
Civil Twilight 5:59 AM CAT 6:29 PM CAT
Nautical Twilight 5:33 AM CAT 6:56 PM CAT
Astronomical Twilight 5:06 AM CAT 7:22 PM CAT
Moon 11:26 PM CAT (9/6) 9:47 AM CAT (9/6)
Length of Visible Light 12h 30m
Length of Day
11h 44m
Waning Gibbous, 70% of the Moon is Illuminated
Sep 6
Waning Gibbous
Sep 8
Last Quarter
Sep 16
New
Sep 22
First Quarter
Sep 30
Full

Hourly Weather History & Observations

Time (CAT) Temp. Windchill Dew Point Humidity Pressure Visibility Wind Dir Wind Speed Gust Speed Precip Events Conditions
12:00 AM 66.2 °F - 53.6 °F 64% 30.09 in - South 5.8 mph - N/A   Clear
1:00 AM 64.4 °F - 35.6 °F 34% 30.09 in - SE 9.2 mph - N/A   Clear
2:00 AM 62 °F - 15 °F 7%  in 6 mi South 5.8 mph - -   Partly Cloudy
2:00 AM 62.6 °F - 15.8 °F 16% 30.06 in - South 5.8 mph - N/A   Clear
3:00 AM 50.0 °F - 17.6 °F 28% 30.04 in - WNW 5.8 mph - N/A   Clear
4:00 AM 50.0 °F - 17.6 °F 28% 30.04 in - WNW 5.8 mph - N/A   Clear
5:00 AM 46.4 °F 44.3 °F 15.8 °F 29% 30.04 in - WNW 4.6 mph - N/A   Clear
6:00 AM 44.6 °F 41.4 °F 14.0 °F 29% 30.04 in - WNW 5.8 mph - N/A   Clear
7:00 AM 44.6 °F 42.2 °F 14.0 °F 29% 30.06 in - WNW 4.6 mph - N/A   Clear
8:00 AM 53 °F - 14 °F 11%  in 6 mi West 5.8 mph - -   Scattered Clouds
8:00 AM 53.6 °F - 14.0 °F 21% 30.06 in 6.2 mi West 5.8 mph - N/A   Partly Cloudy
9:00 AM 57.2 °F - 12.2 °F 17% 30.06 in 6.2 mi SW 4.6 mph - N/A   Mostly Cloudy
10:00 AM 64.4 °F - 12.2 °F 13% 30.06 in 6.2 mi North 4.6 mph - N/A   Mostly Cloudy
11:00 AM 69.8 °F - 14.0 °F 12% 30.04 in 6.2 mi Variable 5.8 mph - N/A   Mostly Cloudy
12:00 PM 73.4 °F - 12.2 °F 10% 30.01 in 6.2 mi WSW 8.1 mph - N/A   Mostly Cloudy
1:00 PM 75.2 °F - 6.8 °F 7% 29.98 in 6.2 mi WNW 11.5 mph - N/A   Partly Cloudy
2:00 PM 77 °F - 1 °F 4%  in 6 mi WNW 13.8 mph - -   Scattered Clouds
2:00 PM 77.0 °F - 1.4 °F 5% 29.95 in 6.2 mi WNW 13.8 mph 25.3 mph N/A   Partly Cloudy
3:00 PM 75.2 °F - -0.4 °F 5% 29.95 in 6.2 mi West 15.0 mph - N/A   Partly Cloudy
4:00 PM 73.4 °F - 1.4 °F 6% 29.95 in 6.2 mi West 16.1 mph - N/A   Partly Cloudy
5:00 PM 73.4 °F - 5.0 °F 7% 29.98 in 6.2 mi WSW 15.0 mph - N/A   Partly Cloudy
6:00 PM 55.4 °F - 17.6 °F 23% 30.01 in - WSW 13.8 mph - N/A   Clear
7:00 PM 64.4 °F - 24.8 °F 22% 30.06 in - WSW 16.1 mph - N/A   Clear
8:00 PM 60.8 °F - 33.8 °F 36% 30.09 in - SSW 20.7 mph - N/A   Clear
9:00 PM 57.2 °F - 35.6 °F 44% 30.12 in - South 8.1 mph - N/A   Clear
10:00 PM 51.8 °F - 35.6 °F 54% 30.12 in - West 6.9 mph - N/A   Clear
11:00 PM 51.8 °F - 35.6 °F 54% 30.12 in - WSW 5.8 mph - N/A   Clear